Tracking 19638 objects as of 19-May-2019
HD Live streaming from Space Station
objects crossing your sky now

DMSP 5D-2 F14 (USA 131)

Track DMSP 5D-2 F14 (USA 131) now!
10-day predictions
DMSP 5D-2 F14 (USA 131) is classified as:


NORAD ID: 24753
Int'l Code: 1997-012A
Perigee: 841.0 km
Apogee: 852.2 km
Inclination: 99.0 °
Period: 101.7 minutes
Semi major axis: 7217 km
RCS: Unknown
Launch date: April 4, 1997
Source: United States (US)
Launch site: AIR FORCE WESTERN TEST RANGE (AFWTR)

Near-polar orbits; investigate Earth's environment.
aabbcc
Your satellite tracking list
Your tracking list is empty




NASA's NSSDC Master Catalog

Two Line Element Set (TLE):
1 24753U 97012A   19139.56273983  .00000071  00000-0  59423-4 0  9991
2 24753  99.0318 146.0556 0007775 241.1095 118.9299 14.15838077142581
Source of the keplerian elements: McCants